Flag for New Zealand Weather past 2 weeks in Auckland, New Zealand

59 °F


Feels Like: 58 °F
Forecast: 57 / 70 °F
Wind: 6 mph from South

Location: Auckland Airport

Current Time: Nov 29, 2015 at 7:45:33 AM

Latest Report: Nov 29, 2015 at 7:00 AM

Visibility: N/A

Pressure: 30.12 "Hg

Humidity: 82%

Dew point: 54 °F

Location of AucklandLocation

Historic Weather in Auckland — Graph


Auckland temperature yesterday

Maximum temperature yesterday: 75 °F (at 2:30 PM)
Minimum temperature yesterday: 61 °F (at 5:30 PM)
Average temperature yesterday: 66 °F

Past Weeks' High & Low Weather Summary

High77 °F (Nov 27, 2:30 PM)100% (Nov 16, 4:00 AM)30.21 "Hg (Nov 16, 4:00 AM)
Low45 °F (Nov 14, 6:00 AM)37% (Nov 14, 3:00 PM)29.53 "Hg (Nov 22, 2:00 AM)
Average62 °F80%29.98 "Hg
* Reported Nov 14 6:00 AM — Nov 29 6:30 AM, Auckland, Weather by CustomWeather, © 2015

Note: Actual official high and low records may vary slightly from our data, if they occured in-between our weather recording intervals... More about our weather records


Auckland weather history for previous 24 hours

Time TempWeatherWind HumidityBarometerVisibility
6:30 AM
Sun, Nov 29
57 °FScattered clouds.6 mph82%30.09 "HgN/A
6:00 AM57 °FCool.7 mph82%30.09 "HgN/A
5:30 AM57 °FPassing clouds.5 mph82%30.09 "HgN/A
5:00 AM59 °FOvercast.7 mph77%30.09 "HgN/A
4:30 AM59 °FMostly cloudy.7 mph77%30.09 "HgN/A
4:00 AM59 °FOvercast.8 mph82%30.09 "HgN/A
3:30 AM61 °FPassing clouds.9 mph77%30.09 "HgN/A
3:00 AM61 °FMostly cloudy.12 mph77%30.09 "HgN/A
2:30 AM61 °FPartly cloudy.10 mph77%30.09 "HgN/A
2:00 AM61 °FMostly cloudy.12 mph72%30.09 "HgN/A
1:30 AM61 °FOvercast.10 mph77%30.09 "HgN/A
1:00 AM61 °FMostly cloudy.8 mph77%30.09 "HgN/A
12:30 AM61 °FOvercast.9 mph77%30.09 "HgN/A
12:00 AM61 °FOvercast.8 mph77%30.09 "HgN/A
11:30 PM
Sat, Nov 28
61 °FOvercast.7 mph77%30.09 "HgN/A
11:00 PM61 °FOvercast.7 mph77%30.07 "HgN/A
10:30 PM61 °FPassing clouds.8 mph77%30.07 "HgN/A
10:00 PM61 °FPassing clouds.7 mph77%30.07 "HgN/A
9:30 PM61 °FOvercast.7 mph83%30.04 "HgN/A
9:00 PM61 °FOvercast.8 mph77%30.04 "HgN/A
7:30 PM61 °FPartly sunny.13 mph88%30.01 "HgN/A
7:00 PM61 °FBroken clouds.13 mph88%30.01 "HgN/A
6:30 PM61 °FMore clouds than sun.13 mph94%30.01 "HgN/A
5:30 PM61 °FRain. Partly sunny.12 mph100%30.01 "Hg4 mi
5:00 PM63 °FSprinkles. Mostly cloudy.15 mph94%30.01 "HgN/A
4:30 PM63 °FPartly sunny.17 mph100%29.98 "HgN/A
4:00 PM68 °FSprinkles. Broken clouds.16 mph88%29.98 "HgN/A
3:30 PM70 °FLight rain. Mostly cloudy.20 mph88%29.98 "HgN/A
3:00 PM73 °FBroken clouds.20 mph74%29.98 "HgN/A
2:30 PM75 °FPartly sunny.17 mph69%29.98 "HgN/A
1:00 PM72 °FScattered clouds.14 mph78%29.98 "HgN/A
12:30 PM73 °FPassing clouds.15 mph74%29.98 "HgN/A
12:00 PM73 °FBroken clouds.12 mph83%30.01 "HgN/A
11:30 AM72 °FBroken clouds.13 mph88%29.98 "HgN/A
11:00 AM68 °FRain showers. Partly sunny.12 mph94%29.98 "Hg2 mi
10:30 AM70 °FPartly sunny.10 mph88%29.98 "HgN/A
10:00 AM68 °FMostly cloudy.8 mph88%29.98 "HgN/A
9:30 AM68 °FOvercast.7 mph88%29.98 "HgN/A
9:00 AM68 °FOvercast.8 mph88%29.98 "HgN/A
8:30 AM66 °FMostly cloudy.9 mph94%29.98 "HgN/A
8:00 AM66 °FOvercast.9 mph94%29.98 "HgN/A
7:30 AM66 °FOvercast.9 mph94%29.98 "HgN/A
7:00 AM66 °FLow clouds.9 mph94%29.98 "HgN/A
Weather by CustomWeather, © 2015

See weather overviewHow to use our weather pages